PUA2502 SUMU-SABE

Flight info

Callsign PUA2502
Flight time 0h 28m
Altitude 16000
Route DAGUS A306 UGIMI
Aircraft A320/M-SDE3FGHIRWY/LB1

Departure

Time 2026-04-22 18:21
Airport Carrasco General Cesáreo L. Berisso International Airport (SUMU)

Arrival

Time 2026-04-22 18:50
Airport Aeroparque Jorge Newbery (SABE)
Time Latitude Longitude Altitude Speed Heading
2026-04-22 17:40 -34.83540 -56.01649 86 ft 0 kts 143°
2026-04-22 18:10 -34.83537 -56.01652 82 ft 3 kts 142°
2026-04-22 18:11 -34.83517 -56.01673 82 ft 4 kts 130°
2026-04-22 18:11 -34.83503 -56.01700 82 ft 4 kts 112°
2026-04-22 18:11 -34.83496 -56.01731 82 ft 4 kts 91°
2026-04-22 18:11 -34.83499 -56.01763 84 ft 4 kts 70°
2026-04-22 18:12 -34.83510 -56.01789 85 ft 2 kts 53°
2026-04-22 18:12 -34.83510 -56.01790 82 ft 0 kts 53°
2026-04-22 18:15 -34.83504 -56.01779 85 ft 7 kts 53°
2026-04-22 18:15 -34.83479 -56.01759 82 ft 6 kts 18°
2026-04-22 18:16 -34.83422 -56.01787 85 ft 12 kts 324°
2026-04-22 18:16 -34.83371 -56.01830 82 ft 14 kts 325°
2026-04-22 18:16 -34.83279 -56.01824 86 ft 16 kts 47°
2026-04-22 18:16 -34.83183 -56.01669 84 ft 19 kts 53°
2026-04-22 18:17 -34.83130 -56.01583 87 ft 19 kts 52°
2026-04-22 18:17 -34.83024 -56.01408 85 ft 20 kts 53°
2026-04-22 18:17 -34.82938 -56.01267 85 ft 21 kts 54°
2026-04-22 18:17 -34.82852 -56.01147 82 ft 15 kts 25°
2026-04-22 18:18 -34.82759 -56.01148 86 ft 13 kts 346°
2026-04-22 18:18 -34.82703 -56.01195 86 ft 7 kts 297°
2026-04-22 18:18 -34.82713 -56.01234 85 ft 8 kts 234°
2026-04-22 18:18 -34.82718 -56.01241 82 ft 0 kts 232°
2026-04-22 18:19 -34.82718 -56.01242 85 ft 0 kts 232°
2026-04-22 18:20 -34.82796 -56.01367 85 ft 52 kts 233°
2026-04-22 18:21 -34.83140 -56.01936 84 ft 112 kts 233°
2026-04-22 18:21 -34.83700 -56.02854 82 ft 156 kts 233°
2026-04-22 18:21 -34.84404 -56.03980 420 ft 170 kts 233°
2026-04-22 18:21 -34.85134 -56.05128 1078 ft 173 kts 234°
2026-04-22 18:22 -34.85869 -56.06296 1726 ft 175 kts 234°
2026-04-22 18:22 -34.86637 -56.07549 2048 ft 195 kts 234°
2026-04-22 18:22 -34.87581 -56.08886 2327 ft 224 kts 220°
2026-04-22 18:22 -34.89050 -56.09773 2741 ft 251 kts 194°
2026-04-22 18:23 -34.90815 -56.09912 3608 ft 258 kts 180°
2026-04-22 18:23 -34.92601 -56.09947 4550 ft 257 kts 188°
2026-04-22 18:23 -34.94356 -56.10255 5454 ft 258 kts 192°
2026-04-22 18:24 -34.97922 -56.11094 7191 ft 264 kts 194°
2026-04-22 18:24 -34.99743 -56.11507 8019 ft 268 kts 194°
2026-04-22 18:24 -35.02866 -56.13730 9540 ft 268 kts 239°
2026-04-22 18:25 -35.03498 -56.15855 10293 ft 271 kts 264°
2026-04-22 18:25 -35.03455 -56.18215 10707 ft 289 kts 272°
2026-04-22 18:25 -35.03289 -56.20752 10930 ft 310 kts 273°
2026-04-22 18:26 -35.02874 -56.26073 12202 ft 320 kts 274°
2026-04-22 18:26 -35.02662 -56.28774 12921 ft 321 kts 274°
2026-04-22 18:26 -35.02459 -56.31496 13608 ft 323 kts 274°
2026-04-22 18:26 -35.02262 -56.34235 13976 ft 325 kts 274°
2026-04-22 18:27 -35.02067 -56.36977 14063 ft 324 kts 274°
2026-04-22 18:27 -35.01873 -56.39713 14083 ft 323 kts 274°
2026-04-22 18:27 -35.01675 -56.42440 14073 ft 323 kts 274°
2026-04-22 18:27 -35.01477 -56.45165 14084 ft 323 kts 274°
2026-04-22 18:28 -35.01281 -56.47860 14083 ft 323 kts 274°
2026-04-22 18:28 -35.01085 -56.50584 14075 ft 323 kts 274°
2026-04-22 18:28 -35.00886 -56.53310 14085 ft 323 kts 274°
2026-04-22 18:28 -35.00688 -56.56039 14081 ft 322 kts 274°
2026-04-22 18:29 -35.00491 -56.58760 14082 ft 322 kts 275°
2026-04-22 18:29 -35.00290 -56.61483 14085 ft 323 kts 275°
2026-04-22 18:29 -35.00090 -56.64211 14085 ft 323 kts 275°
2026-04-22 18:29 -34.99889 -56.66933 14081 ft 323 kts 275°
2026-04-22 18:30 -34.99687 -56.69660 14084 ft 323 kts 275°
2026-04-22 18:30 -34.99282 -56.75078 14095 ft 323 kts 275°
2026-04-22 18:30 -34.99075 -56.77800 14091 ft 323 kts 275°
2026-04-22 18:31 -34.98863 -56.80600 14091 ft 338 kts 275°
2026-04-22 18:31 -34.98649 -56.83467 14091 ft 341 kts 275°
2026-04-22 18:31 -34.98435 -56.86353 14079 ft 342 kts 275°
2026-04-22 18:31 -34.98277 -56.89252 14082 ft 342 kts 270°
2026-04-22 18:32 -34.98172 -56.92144 14088 ft 342 kts 279°
2026-04-22 18:32 -34.97603 -56.94960 14084 ft 343 kts 283°
2026-04-22 18:32 -34.96993 -56.97770 14082 ft 343 kts 283°
2026-04-22 18:32 -34.96378 -57.00576 14097 ft 343 kts 284°
2026-04-22 18:33 -34.95966 -57.02437 14100 ft 343 kts 284°
2026-04-22 18:33 -34.95135 -57.06191 14102 ft 344 kts 284°
2026-04-22 18:33 -34.94514 -57.09004 14106 ft 344 kts 284°
2026-04-22 18:33 -34.93901 -57.11782 14108 ft 344 kts 284°
2026-04-22 18:34 -34.93280 -57.14594 14112 ft 344 kts 284°
2026-04-22 18:34 -34.92656 -57.17405 14116 ft 343 kts 284°
2026-04-22 18:34 -34.92031 -57.20216 14117 ft 343 kts 284°
2026-04-22 18:34 -34.91406 -57.23020 14117 ft 343 kts 284°
2026-04-22 18:35 -34.90779 -57.25828 14120 ft 344 kts 284°
2026-04-22 18:35 -34.90151 -57.28638 14120 ft 344 kts 284°
2026-04-22 18:35 -34.89525 -57.31448 14124 ft 344 kts 284°
2026-04-22 18:35 -34.88901 -57.34251 14122 ft 343 kts 284°
2026-04-22 18:36 -34.88277 -57.37055 14125 ft 343 kts 284°
2026-04-22 18:36 -34.87651 -57.39858 14125 ft 343 kts 284°
2026-04-22 18:36 -34.87023 -57.42659 14126 ft 343 kts 284°
2026-04-22 18:36 -34.86402 -57.45422 14126 ft 343 kts 284°
2026-04-22 18:37 -34.85773 -57.48227 14125 ft 343 kts 284°
2026-04-22 18:37 -34.85146 -57.51027 14120 ft 343 kts 284°
2026-04-22 18:37 -34.84525 -57.53805 13964 ft 334 kts 284°
2026-04-22 18:37 -34.83921 -57.56488 13705 ft 323 kts 284°
2026-04-22 18:38 -34.83338 -57.59079 13457 ft 312 kts 284°
2026-04-22 18:38 -34.82772 -57.61589 13227 ft 303 kts 284°
2026-04-22 18:38 -34.82217 -57.64038 12963 ft 298 kts 284°
2026-04-22 18:39 -34.81125 -57.68830 12303 ft 291 kts 284°
2026-04-22 18:39 -34.80588 -57.71198 11923 ft 289 kts 283°
2026-04-22 18:39 -34.80063 -57.73524 11549 ft 288 kts 283°
2026-04-22 18:39 -34.79531 -57.75872 11165 ft 288 kts 283°
2026-04-22 18:40 -34.78997 -57.78213 10792 ft 286 kts 283°
2026-04-22 18:40 -34.78467 -57.80534 10436 ft 284 kts 283°
2026-04-22 18:40 -34.77946 -57.82811 10185 ft 275 kts 282°
2026-04-22 18:40 -34.77439 -57.85045 10002 ft 274 kts 282°
2026-04-22 18:41 -34.76932 -57.87285 9875 ft 275 kts 282°
2026-04-22 18:41 -34.76423 -57.89531 9589 ft 277 kts 282°
2026-04-22 18:41 -34.75906 -57.91802 9133 ft 280 kts 282°
2026-04-22 18:41 -34.75381 -57.94099 8739 ft 281 kts 282°
2026-04-22 18:42 -34.74856 -57.96375 8241 ft 279 kts 282°
2026-04-22 18:42 -34.74336 -57.98623 7715 ft 273 kts 282°
2026-04-22 18:42 -34.73836 -58.00806 7249 ft 272 kts 282°
2026-04-22 18:42 -34.73327 -58.03038 6763 ft 273 kts 282°
2026-04-22 18:43 -34.72819 -58.05244 6298 ft 268 kts 282°
2026-04-22 18:43 -34.72324 -58.07363 6110 ft 251 kts 282°
2026-04-22 18:43 -34.71863 -58.09338 5912 ft 237 kts 281°
2026-04-22 18:43 -34.71423 -58.11241 5533 ft 232 kts 281°
2026-04-22 18:44 -34.70996 -58.13115 5387 ft 227 kts 281°
2026-04-22 18:44 -34.70568 -58.14916 5284 ft 217 kts 286°
2026-04-22 18:44 -34.69856 -58.16530 5135 ft 218 kts 300°
2026-04-22 18:44 -34.69011 -58.18042 4828 ft 219 kts 300°
2026-04-22 18:45 -34.68135 -58.19617 4217 ft 228 kts 300°
2026-04-22 18:45 -34.67250 -58.21208 3831 ft 222 kts 301°
2026-04-22 18:45 -34.66417 -58.22698 3625 ft 211 kts 300°
2026-04-22 18:45 -34.65619 -58.24132 3483 ft 198 kts 300°
2026-04-22 18:46 -34.64856 -58.25502 3159 ft 193 kts 300°
2026-04-22 18:46 -34.64121 -58.26819 2875 ft 184 kts 300°
2026-04-22 18:46 -34.63415 -58.28092 2612 ft 180 kts 301°
2026-04-22 18:46 -34.62726 -58.29336 2357 ft 175 kts 302°
2026-04-22 18:47 -34.62052 -58.30551 2111 ft 171 kts 303°
2026-04-22 18:47 -34.61394 -58.31736 1874 ft 168 kts 303°
2026-04-22 18:47 -34.60755 -58.32889 1650 ft 161 kts 304°
2026-04-22 18:47 -34.60151 -58.33978 1443 ft 153 kts 305°
2026-04-22 18:48 -34.59560 -58.35040 1217 ft 150 kts 305°
2026-04-22 18:48 -34.58990 -58.36065 1012 ft 144 kts 306°
2026-04-22 18:48 -34.58440 -58.37066 777 ft 142 kts 304°
2026-04-22 18:48 -34.57903 -58.38063 544 ft 141 kts 305°
2026-04-22 18:49 -34.57354 -58.39046 306 ft 140 kts 306°
2026-04-22 18:49 -34.56801 -58.40023 170 ft 141 kts 305°
2026-04-22 18:49 -34.56254 -58.41001 38 ft 135 kts 305°
2026-04-22 18:49 -34.55816 -58.41767 26 ft 72 kts 304°
2026-04-22 18:50 -34.55651 -58.42068 27 ft 35 kts 303°
2026-04-22 18:50 -34.55504 -58.42333 28 ft 40 kts 304°
2026-04-22 18:50 -34.55392 -58.42498 27 ft 16 kts
2026-04-22 18:50 -34.55370 -58.42389 27 ft 14 kts 105°
2026-04-22 18:51 -34.55393 -58.42338 25 ft 0 kts 125°
2026-04-22 18:51 -34.55396 -58.42334 29 ft 2 kts 126°
2026-04-22 18:52 -34.55430 -58.42277 28 ft 15 kts 126°
2026-04-22 18:52 -34.55494 -58.42173 30 ft 16 kts 127°
2026-04-22 18:52 -34.55564 -58.42061 28 ft 17 kts 127°
2026-04-22 18:52 -34.55637 -58.41934 28 ft 19 kts 124°
2026-04-22 18:53 -34.55715 -58.41792 25 ft 20 kts 124°
2026-04-22 18:53 -34.55780 -58.41642 29 ft 21 kts 116°
2026-04-22 18:53 -34.55846 -58.41489 27 ft 21 kts 118°
2026-04-22 18:53 -34.55901 -58.41355 28 ft 7 kts 116°
2026-04-22 18:54 -34.55888 -58.41298 28 ft 9 kts 38°
2026-04-22 18:54 -34.55831 -58.41294 25 ft 10 kts 318°
2026-04-22 18:54 -34.55789 -58.41372 27 ft 12 kts 303°
2026-04-22 18:54 -34.55751 -58.41428 28 ft 4 kts 359°
2026-04-22 18:55 -34.55723 -58.41408 25 ft 4 kts 32°
2026-04-22 18:55 -34.55718 -58.41404 25 ft 0 kts 31°